Regional Weather Roundup
Issued by NWS Northern Indiana

Home | Current Version | Previous Version | Text Only | Print | Product List | Glossary Off
Versions: 1 2 3 4 5 6 7 8 9 10 11 12 13 14 15 16 17 18 19 20 21 22 23 24 25 26 27 28 29 30 31 32 33 34 35 36 37 38 39 40 41 42 43 44 45 46 47 48 49 50

000
ASUS43 KIWX 090110
RWRIWX

KIWX WEATHER ROUNDUP
NATIONAL WEATHER SERVICE NORTHERN INDIANA
800 PM EST MON FEB 08 2016

NOTE: "FAIR" INDICATES FEW OR NO CLOUDS BELOW 12,000 FEET WITH NO
SIGNIFICANT WEATHER AND/OR OBSTRUCTIONS TO VISIBILITY.

* THESE STATIONS ARE NOT UNDER NWS QUALITY CONTROL. THEY ALSO MAY NOT
  REPORT WEATHER SUCH AS PRECIPITATION OR FOG.

INZ001>027-090200-
NORTHERN INDIANA

CITY           SKY/WX    TMP DP  RH WIND       PRES   REMARKS
GARY*          CLOUDY    30  19  64 W14       29.75R WCI  20
VALPARAISO     CLOUDY    28  22  78 W12       29.73S WCI  18
MICHIGAN CITY* FLURRIES  28  27  93 W6        29.73S WCI  22
LAPORTE*       CLOUDY    30  26  87 W10G17    29.72S WCI  21
KNOX*          CLOUDY    28  23  80 W12       29.72S WCI  18
SOUTH BEND     LGT SNOW  27  26  96 W7        29.70S FOG     WCI  19
ELKHART*       FLURRIES  28  27  93 W9        29.70R WCI  20
GOSHEN         CLOUDY    29  25  85 W12       29.68S WCI  19
MONTICELLO*    CLOUDY    25  17  71 W12G17    29.76R WCI  15
LOGANSPORT*    LGT SNOW  27  19  74 W10       29.75S WCI  17
ROCHESTER*     LGT SNOW  30  21  69 W10G16    29.72S WCI  21
WARSAW*        FLURRIES  28  25  86 W10       29.69S WCI  19
ANGOLA*        CLOUDY    30  28  93 W9        29.64S WCI  22
FORT WAYNE     LGT SNOW  29  27  92 W16       29.68S FOG     WCI  17
HUNTINGTON*    CLOUDY    26  21  81 W13G20    29.70S WCI  15
PERU/GRISSOM   LGT SNOW  24  22  93 W14       29.71F FOG     WCI  12
MARION*        LGT SNOW  25  17  70 W16       29.73S WCI  12

$$
INZ028>050-090200-
CENTRAL INDIANA

CITY           SKY/WX    TMP DP  RH WIND       PRES   REMARKS
LAFAYETTE      CLOUDY    23  18  81 W14       29.78S WCI  11
KOKOMO*        CLOUDY    27  19  74 W15       29.73S WCI  15
MUNCIE*        LGT SNOW  27  22  81 W14G23    29.71S WCI  16
INDIANAPOLIS   FLURRIES  23  16  74 W15       29.77R WCI  10

$$
MIZ043>046-050>051-056>058-064>065-071>073-077>080-090200-
SOUTHWEST LOWER MICHIGAN

CITY           SKY/WX    TMP DP  RH WIND       PRES   REMARKS
BATTLE CREEK   LGT SNOW  32  30  92 W12       29.63S FOG     WCI  23
BENTON HARBOR  LGT SNOW  30  27  88 W9        29.70S FOG     WCI  22
COLDWATER*     LGT SNOW  32  31  96 W10       29.64S WCI  23
HILLSDALE*     MOCLDY    31  28  90 W13       29.61S WCI  21
HOLLAND        CLOUDY    33  30  88 W9        29.66S WCI  25
GRAND RAPIDS   FLURRIES  33  30  88 W10       29.63R WCI  25
KALAMAZOO      LGT SNOW  32  28  85 W8        29.65R FOG     WCI  25
STURGIS*       CLOUDY    30  28  92 W9        29.65S WCI  22
THREE RIVERS*  FLURRIES  31  29  90 W12       29.66F WCI  22

$$
OHZ001>008-015>018-024>025-090200-
NORTHWEST OHIO

CITY           SKY/WX    TMP DP  RH WIND       PRES   REMARKS
DEFIANCE       CLOUDY    34  27  75 W10       29.65S WCI  26
FINDLAY        PTCLDY    32  25  75 W7        29.62S WCI  26
TOLEDO EXPRESS CLOUDY    33  25  72 W8        29.62R WCI  26
TOLEDO METCALF CLOUDY    36  26  67 W10       29.62S
LIMA           MOCLDY    32  29  88 NW15      29.63R WCI  22

$$
AND FOR LAKE MICHIGAN COASTAL AND OPEN LAKE BUOY OBSERVATIONS

STATION/POSITION TEMP    WIND        PRES    VSBY  WAVE
                 AIR SEA DIR/SP/G                  HT/PER
                 (F)     (DEG/KT/KT) (MB)    (MI)  (FT/S)
CALUMET HARBOR    28     270/  9/ 12 1006.5R
MICHIGAN CITY     28     240/ 18/ 18   N/A
BURNS HARBOR      29     270/ 12/ 15 1007.5R
SAINT JOSEPH      30     260/ 13/ 16 1006.8R

$$
&&



USA.gov is the U.S. government's official web portal to all federal, state and local government web resources and services.